Tracking 17694 objects as of 30-May-2016
HD Live streaming from Space Station
objects crossing your sky now

ZY 3

Track ZY 3 now!
10-day predictions
ZY 3 is classified as:


NORAD ID: 38046
Int'l Code: 2012-001A
Perigee: 508.0 km
Apogee: 509.3 km
Inclination: 97.3 °
Period: 94.6 minutes
Semi major axis: 6879 km
RCS: 5.391 m2 (large)
Launch date: January 9, 2012
Source: People's Republic of China (PRC)
Launch site: Taiyaun Space Center, China (TSC)
Your satellite tracking list
Your tracking list is empty





NASA's NSSDC Master Catalog

Two Line Element Set (TLE):
1 38046U 12001A   16150.86381696  .00001280  00000-0  60017-4 0  9994
2 38046  97.3289 222.2903 0000883 115.2208 349.2651 15.21436410243678
Source of the keplerian elements: AFSPC

N2YO: 499